Theta_e
356 355 355 354 354 353 353 353 353 354 352 352 351 351 352 354 353 353 354 353 354 351 351 354 357 358 357 356 357 358 358 359 359 359 359 360 359 359 359 359 358 358 359 359 361 359 357 355 354 353 354 351 349 351 351 350 351 350 350 346 345 346 345 340 337 339 341 346 350 350 352 355 351 351 351 352 354 357 357 359 361 359 357 353 353
357 357 357 356 354 353 353 353 354 353 352 351 351 349 349 352 352 351 352 351 350 350 351 351 356 356 356 355 355 356 357 357 358 358 358 358 358 360 359 357 357 357 355 355 357 358 356 354 355 355 355 352 350 350 351 350 348 349 348 350 347 348 346 342 338 337 339 340 343 348 351 356 350 352 354 354 354 358 358 357 364 359 358 355 353
357 357 356 355 354 354 354 353 353 352 353 351 351 350 349 349 351 350 351 351 351 350 351 351 352 353 354 354 352 353 354 354 354 356 356 357 357 357 358 357 357 356 356 356 356 356 354 353 354 355 359 355 353 351 351 350 350 347 346 347 347 346 347 346 342 339 340 341 342 346 347 350 351 351 353 356 357 357 354 355 358 362 361 358 355
356 353 353 353 352 352 352 353 353 353 352 352 351 350 349 348 350 349 349 350 350 349 351 351 351 351 351 351 351 350 351 352 352 353 355 355 356 355 355 353 355 356 356 356 356 356 355 353 353 354 355 353 352 352 352 350 349 348 348 348 348 347 347 347 347 343 341 341 342 346 348 349 350 352 357 358 357 356 354 355 355 357 360 362 359
353 351 351 352 352 350 350 352 352 352 352 352 351 350 349 348 349 349 348 348 349 348 349 350 351 351 351 351 350 350 350 351 351 351 353 355 355 355 354 353 352 352 354 356 362 356 355 354 353 352 352 352 352 352 353 351 351 349 347 347 347 349 349 348 348 346 343 342 343 346 349 350 352 354 356 355 356 355 354 353 355 357 356 361 363
352 349 349 347 345 347 349 349 350 352 352 351 351 350 348 347 347 349 349 347 347 348 347 347 349 350 350 350 350 350 350 351 351 351 351 353 354 354 354 353 353 352 352 352 353 355 355 353 353 352 351 351 351 351 351 352 352 351 349 348 347 347 347 347 347 346 345 344 343 344 345 350 350 352 355 354 353 351 352 354 354 354 353 357 361
352 349 349 351 347 348 348 350 352 352 351 350 349 348 346 345 344 347 349 348 346 346 347 346 347 348 350 350 350 350 349 350 351 351 350 351 353 353 353 352 352 351 352 352 352 351 352 353 353 352 351 351 350 350 350 351 352 350 350 349 349 345 346 346 346 344 345 345 344 346 347 349 351 349 350 352 352 353 352 352 351 351 351 353 356
351 349 349 350 347 346 346 349 352 351 352 352 351 350 351 354 352 348 347 346 346 345 345 346 346 346 347 349 350 350 349 348 349 350 349 348 349 351 352 352 352 351 350 350 352 351 351 351 352 352 352 351 351 350 350 349 350 349 350 349 348 347 346 345 344 345 345 344 342 343 343 344 345 350 353 351 351 348 349 352 348 347 349 349 355
352 350 348 348 346 348 349 350 351 352 354 349 349 351 353 355 353 352 349 347 348 346 345 345 346 346 345 346 348 349 349 349 349 349 349 347 347 346 349 351 351 350 350 349 349 349 350 350 351 351 353 363 359 358 356 357 350 348 349 349 348 347 346 345 344 342 342 344 345 346 344 346 347 347 348 346 347 349 346 346 345 348 349 350 352
350 350 350 350 350 350 350 353 352 352 351 351 351 352 354 354 354 354 352 352 349 349 347 344 343 346 346 346 346 348 348 350 352 346 348 350 347 347 347 347 348 348 349 348 348 347 347 347 350 360 362 360 355 353 349 355 362 355 349 348 348 347 346 345 344 343 343 342 342 342 342 343 345 346 346 346 347 344 344 344 343 345 345 347 349
348 349 349 350 350 351 350 348 349 349 350 351 352 352 353 352 351 352 351 350 348 348 347 345 341 342 345 346 346 347 348 349 344 336 337 342 350 348 347 346 346 346 346 346 346 347 347 347 346 354 362 366 358 351 347 345 349 356 360 362 361 349 346 345 345 344 343 343 343 342 341 341 343 345 345 346 346 346 346 344 345 344 342 340 338
343 344 346 347 349 350 351 351 351 353 354 352 351 350 350 350 351 350 350 350 349 352 347 345 345 343 342 343 346 348 348 347 335 333 334 334 343 351 349 348 347 346 345 345 345 345 345 346 346 347 347 348 348 349 351 350 344 345 346 351 353 359 358 351 347 345 345 345 344 345 344 343 345 345 346 345 346 345 344 343 343 343 343 340 336
341 342 343 345 345 347 348 349 351 351 351 353 352 351 350 349 348 349 349 350 351 348 348 347 345 346 344 341 342 345 348 342 333 331 331 331 332 343 349 349 348 347 346 345 345 344 344 344 345 345 346 356 356 349 345 345 345 342 341 342 346 345 341 341 347 352 348 346 346 345 346 347 346 347 348 346 345 344 342 341 340 340 340 337 338
337 337 341 343 344 345 345 346 347 349 350 350 350 351 350 349 350 350 351 352 350 349 349 348 347 346 346 345 343 342 343 343 332 328 328 328 330 333 347 348 348 348 347 346 346 344 344 343 343 343 344 345 346 345 343 342 342 343 344 344 344 349 348 342 342 343 349 350 348 347 348 349 348 349 352 349 346 346 344 344 342 340 340 341 343
334 334 335 337 339 343 343 344 344 347 349 348 348 348 348 348 349 350 351 351 350 349 348 348 348 350 349 348 348 348 346 338 329 325 324 325 327 331 343 347 348 347 348 348 346 345 344 344 343 342 343 343 343 345 342 341 339 339 339 340 342 343 344 345 346 348 350 351 352 352 352 351 351 351 351 351 351 351 350 348 346 345 344 341 343
331 333 332 334 334 335 343 342 342 344 346 346 346 346 346 345 346 349 351 351 350 350 349 349 349 348 349 349 348 347 351 336 330 324 321 322 325 334 338 342 344 346 347 347 347 346 345 343 342 341 341 341 347 342 348 346 340 338 337 338 340 342 344 348 338 341 350 350 350 352 354 355 346 353 355 355 353 353 354 351 348 345 345 343 344
328 329 330 331 333 334 336 343 343 343 345 344 343 344 345 345 346 348 348 350 349 349 349 349 350 349 349 350 349 349 350 340 329 323 318 318 323 333 335 338 340 342 344 346 347 346 345 344 342 341 340 340 341 331 331 344 342 340 339 338 339 341 342 346 338 331 331 330 331 333 333 333 333 331 329 331 345 347 346 343 344 346 342 341 341
326 327 327 329 331 332 334 336 336 336 340 343 344 344 345 345 345 347 346 348 350 352 352 351 351 351 351 350 351 350 351 348 326 323 321 316 327 332 333 335 337 339 341 343 345 345 346 354 356 344 341 341 335 329 329 336 337 338 339 339 339 340 342 346 350 349 331 326 326 327 328 329 329 329 330 330 329 335 339 339 343 342 340 340 339
325 326 326 328 330 331 331 333 333 332 333 337 343 345 345 346 348 347 346 347 348 351 354 353 352 352 353 352 356 354 352 349 328 318 318 316 326 336 335 334 335 335 337 339 341 344 345 352 356 352 348 343 331 329 328 336 339 339 340 340 340 340 343 346 347 349 349 348 348 345 342 339 341 340 342 335 334 344 340 342 343 342 340 339 339
327 326 326 327 328 330 329 331 332 332 331 332 335 339 346 347 347 347 346 345 347 351 353 353 352 353 354 354 355 354 354 353 347 321 314 314 317 339 337 337 337 338 338 338 339 340 342 343 346 335 329 329 327 324 323 323 340 344 344 343 343 342 346 346 349 350 351 353 353 353 351 351 350 348 347 347 347 348 342 342 342 343 341 341 340
327 325 325 327 327 327 327 328 329 329 330 331 334 337 340 342 345 345 345 346 348 349 349 350 351 351 352 353 353 353 356 355 351 331 321 316 315 326 340 340 341 342 342 342 342 342 342 343 345 338 326 323 321 320 319 319 326 341 344 345 346 346 349 346 348 360 353 352 352 353 353 352 351 351 349 348 347 347 345 341 343 343 342 341 339
323 323 323 326 328 327 327 328 330 329 330 331 331 334 334 337 341 343 343 345 345 345 346 347 348 348 349 351 352 351 352 354 352 341 331 320 314 312 334 342 344 344 343 344 344 344 344 345 345 340 327 322 319 317 316 318 320 334 341 328 329 329 340 346 347 347 347 347 348 348 349 350 351 350 350 349 348 348 347 345 342 343 344 344 343
322 324 329 329 328 328 328 329 328 328 329 331 330 328 329 333 334 342 343 344 344 342 343 344 345 344 344 345 346 347 348 351 345 348 334 325 321 314 314 326 329 343 343 344 345 347 348 348 351 348 325 318 314 314 314 316 320 329 322 321 322 323 334 338 341 343 345 346 346 347 347 349 349 349 350 351 351 351 351 350 348 345 345 346 346
321 323 325 323 325 327 328 329 325 325 328 329 328 327 329 331 334 343 344 343 341 339 339 342 342 341 340 341 342 344 346 348 346 342 340 327 319 316 314 312 314 331 341 343 345 346 346 348 338 312 310 306 306 309 311 314 324 317 315 317 318 324 332 335 336 340 342 342 343 345 346 348 350 350 351 353 354 354 354 354 353 352 349 348 348
320 321 321 322 323 325 324 322 323 324 325 326 327 328 328 328 329 332 336 338 335 333 335 338 338 337 337 337 337 339 342 343 343 342 336 331 324 321 318 314 313 310 321 333 337 341 333 322 315 314 315 313 313 315 320 322 315 311 313 315 323 330 333 335 337 340 340 342 343 345 346 348 350 351 353 354 355 356 354 355 356 355 354 353 352
320 320 321 321 322 323 323 322 322 324 325 326 327 328 326 327 327 327 329 329 329 329 332 334 333 331 330 331 333 335 337 338 338 339 344 343 338 327 322 321 324 319 319 323 320 317 314 313 313 314 317 323 334 337 338 339 329 320 316 318 328 332 334 337 338 339 340 342 343 344 346 348 350 352 353 353 352 353 354 354 354 354 354 353 352
320 320 318 320 320 321 321 321 322 324 324 324 325 327 325 324 324 327 326 325 325 328 329 331 330 328 329 328 329 332 332 332 333 335 339 342 342 337 333 332 330 330 334 337 334 336 336 335 334 326 323 324 324 326 328 332 336 336 334 333 332 334 335 337 339 340 341 342 343 344 347 349 351 350 351 350 350 351 352 351 351 351 351 351 350
318 316 317 318 320 321 322 328 328 323 323 323 322 322 323 325 324 324 324 324 324 325 327 327 326 326 326 327 328 328 327 327 329 332 335 336 333 331 330 331 331 332 333 334 331 332 334 332 333 341 341 341 340 338 337 336 336 336 338 339 339 339 340 340 342 341 342 344 345 345 346 347 347 349 350 350 350 351 351 350 349 349 349 348 346
318 315 316 316 317 322 322 321 322 322 320 320 322 322 323 324 323 322 323 324 327 326 323 323 327 325 326 326 326 325 325 325 327 323 328 315 317 320 323 326 326 324 326 314 319 324 330 335 338 339 341 341 342 342 343 343 342 341 341 341 341 341 340 339 338 339 340 340 341 342 343 345 346 348 348 348 349 350 351 350 349 349 348 347 345
316 314 315 316 317 318 319 319 320 322 320 319 320 321 329 317 315 319 320 327 319 308 310 319 321 319 320 322 324 324 323 325 318 308 304 303 303 302 303 301 300 307 309 306 312 320 329 334 337 338 339 340 341 341 342 343 343 343 343 337 342 343 342 341 341 341 341 341 342 341 342 343 344 346 347 347 349 350 349 342 349 349 346 346 345
318 316 318 316 318 321 320 320 321 320 318 319 319 319 319 318 309 309 312 315 309 302 301 302 305 309 315 315 318 315 313 309 305 303 301 301 299 298 298 298 298 297 298 307 321 329 331 332 335 337 339 341 341 342 343 343 342 342 343 343 343 343 340 342 343 341 340 340 340 341 342 342 343 344 345 346 347 349 350 347 347 347 347 346 345
314 314 315 315 319 321 319 321 322 322 319 317 317 317 316 315 318 311 308 308 308 304 302 302 302 303 305 308 312 316 313 309 305 302 300 298 297 296 295 296 297 297 296 300 316 325 329 330 332 335 338 339 341 342 343 344 344 344 344 343 343 343 343 343 343 344 343 342 341 340 341 342 343 343 344 345 343 346 347 347 347 346 346 346 346
315 314 315 317 318 320 320 319 321 322 320 318 319 319 318 317 315 316 317 308 307 306 305 304 303 303 302 302 302 303 303 303 300 299 298 297 295 295 295 296 298 296 298 311 321 326 330 331 332 335 337 338 340 342 344 345 345 344 345 344 344 344 345 345 344 345 344 345 344 343 343 343 342 342 341 342 343 344 344 345 346 346 346 345 344
314 315 318 320 318 317 316 319 319 319 318 317 318 317 317 318 315 315 315 315 316 311 308 307 306 304 306 305 305 303 301 299 300 299 297 296 296 297 296 301 298 296 302 320 326 328 331 332 334 335 337 338 340 341 342 344 344 345 345 345 345 346 347 348 347 346 344 344 344 344 343 344 344 344 345 345 345 345 345 343 345 344 344 344 344
313 318 321 322 319 318 317 316 316 318 319 319 316 316 316 317 318 317 315 315 314 314 315 317 313 310 313 309 305 299 300 301 302 300 298 297 298 296 300 317 322 320 309 316 323 328 330 332 332 334 335 336 338 340 341 344 345 345 345 345 346 347 348 348 347 348 347 347 346 345 344 344 346 345 345 345 345 345 344 344 345 344 343 343 342
311 312 314 316 315 316 316 316 315 314 314 315 317 317 318 318 317 317 314 316 316 315 316 316 317 315 311 306 307 303 302 301 301 300 299 300 297 299 319 317 319 322 325 329 330 327 326 326 326 325 326 326 327 329 331 333 336 340 345 346 346 347 347 348 347 348 348 348 346 344 341 345 345 343 346 346 346 345 345 344 343 342 342 342 342
311 312 312 312 313 314 315 316 316 317 319 317 315 315 316 316 318 317 316 315 316 317 316 316 316 318 318 322 324 310 306 304 304 304 303 303 297 308 317 318 320 321 321 319 319 319 319 319 320 320 320 319 320 322 325 327 330 331 329 334 338 344 347 348 349 348 348 348 348 347 346 346 347 346 345 344 342 343 343 343 342 340 339 337 335
312 312 312 312 312 312 312 313 315 318 318 318 317 315 316 316 317 317 317 316 317 317 316 315 319 316 315 317 326 319 316 309 307 308 308 308 311 316 317 318 317 316 316 315 315 314 314 314 315 315 315 316 316 318 320 323 325 326 327 329 331 333 331 338 342 347 348 349 349 348 344 345 346 346 341 342 342 342 341 340 341 341 339 336 336
310 312 312 313 313 312 311 314 315 315 315 316 316 316 316 315 315 315 314 314 314 315 316 315 315 316 316 317 315 316 315 313 312 312 312 312 314 315 313 312 312 312 313 312 313 313 311 311 312 313 314 314 315 316 318 319 320 321 322 324 326 328 329 332 334 338 344 347 347 345 342 342 344 345 345 344 343 343 342 342 340 340 340 340 340
309 307 310 311 311 311 312 313 314 313 315 313 311 312 312 312 312 312 313 313 314 314 315 315 315 315 316 317 315 310 311 313 311 311 311 312 312 312 310 310 310 310 310 310 309 309 309 309 311 311 311 312 313 314 315 316 316 317 318 319 320 321 324 327 329 331 333 334 337 342 343 341 342 344 345 345 345 345 344 342 340 340 340 340 340
307 307 309 310 310 309 311 312 312 313 313 312 312 311 310 312 313 314 313 313 313 313 313 314 313 314 314 312 305 300 307 310 311 311 312 312 312 309 309 310 310 310 310 309 308 307 308 308 309 309 309 310 311 312 312 312 313 313 313 314 314 316 318 321 325 327 328 328 330 333 336 341 344 346 346 346 337 340 343 342 341 340 339 338 339
306 305 306 307 307 308 308 309 310 311 310 311 310 310 311 312 312 312 312 312 313 313 313 313 313 314 311 306 302 297 303 311 311 311 311 310 309 309 310 310 310 308 307 307 307 307 307 307 308 308 308 308 309 309 310 309 310 310 310 310 311 312 313 315 317 319 321 323 324 326 329 331 332 333 334 330 342 345 344 343 342 341 341 340 339
305 305 304 306 305 306 306 306 306 306 307 308 308 311 311 311 310 311 311 312 312 312 312 312 312 313 313 310 309 305 307 308 314 310 309 310 310 310 309 306 305 305 306 307 308 307 307 306 306 306 307 307 308 308 308 309 309 309 310 310 310 310 311 312 312 314 316 318 319 320 321 322 323 325 327 330 333 336 339 340 339 340 339 340 339
303 303 303 304 304 304 305 304 304 305 305 308 309 310 310 309 309 309 309 309 309 310 310 310 311 312 312 311 308 307 308 308 308 306 307 307 306 305 304 303 304 305 306 306 306 306 306 305 305 305 306 307 308 308 308 309 309 309 309 308 308 308 308 308 309 311 312 312 312 312 314 315 317 318 320 322 326 328 331 335 337 338 338 340 340
301 301 301 301 301 302 302 304 304 305 308 308 306 307 309 307 307 308 309 308 309 310 310 311 311 311 311 310 308 308 307 306 307 306 304 304 304 304 304 303 303 303 303 304 304 305 305 305 305 305 305 306 307 307 307 307 308 309 308 307 305 304 305 305 307 308 307 306 306 307 308 310 311 312 314 316 319 322 325 329 331 330 333 334 336
299 299 300 301 301 302 303 304 305 305 305 305 305 306 306 307 307 308 308 309 309 309 309 309 310 310 310 308 308 308 306 304 304 304 305 304 303 303 304 303 302 302 303 303 304 304 304 304 304 305 305 305 305 305 306 306 307 307 306 305 304 303 303 303 304 303 303 303 303 304 305 307 309 310 313 313 315 317 319 321 326 329 332 333 334
298 299 300 301 301 303 304 303 304 304 304 304 305 305 305 305 306 307 308 308 308 310 309 309 308 308 308 307 307 306 306 306 305 305 304 304 304 303 301 301 301 301 302 303 303 303 304 304 304 304 304 304 305 305 305 304 304 304 304 303 303 303 302 302 302 301 300 300 300 300 301 304 306 309 311 313 313 314 315 316 318 320 323 326 329
299 300 301 302 302 301 302 302 302 303 303 303 303 303 304 304 304 305 306 307 307 307 307 307 306 306 306 305 306 305 305 305 305 304 303 303 302 301 301 301 301 301 301 302 302 303 303 303 304 304 303 303 302 302 301 300 300 300 301 301 301 301 300 299 298 297 297 297 297 298 300 301 304 307 309 311 312 314 315 316 319 320 322 323 323
300 300 300 300 301 300 300 300 300 300 300 300 301 301 302 302 304 304 305 304 305 305 304 304 304 304 304 304 304 304 303 304 301 301 301 301 301 301 301 301 302 301 301 301 302 302 303 302 302 301 300 300 300 299 298 298 297 297 298 298 299 298 293 293 294 294 294 295 295 296 299 301 303 306 309 311 312 313 314 315 317 319 321 322 324
299 299 299 299 298 299 299 298 299 299 299 299 298 299 301 301 301 302 303 303 303 303 303 303 303 302 301 302 302 301 301 301 300 300 300 301 300 301 301 300 299 299 300 300 300 300 300 299 299 298 298 298 298 297 296 295 295 294 295 295 294 291 290 291 292 293 294 294 295 296 298 301 304 306 308 310 311 313 314 315 317 318 319 321 322
298 298 297 297 297 297 296 296 296 296 296 296 297 298 299 299 300 300 301 301 301 301 302 301 301 301 301 300 302 301 300 300 300 300 300 300 299 299 299 299 298 298 298 299 298 298 298 297 296 296 296 296 296 295 294 294 293 293 293 293 291 289 289 290 291 291 291 292 293 296 300 303 305 307 310 312 314 314 315 316 317 318 319 319 320
Wind_Speed
8 9 9 10 10 10 9 8 8 6 6 6 7 7 7 7 7 6 4 6 6 6 6 7 8 8 7 6 6 6 6 6 5 5 5 5 5 5 4 4 4 5 4 4 3 3 3 4 4 4 3 2 4 2 2 3 4 3 2 1 3 2 2 2 2 6 4 2 3 3 3 3 3 1 3 4 5 3 2 3 3 3 3 5 5
8 7 7 9 10 10 10 8 8 7 7 6 6 7 7 7 7 6 7 7 6 7 6 6 6 8 8 7 6 7 6 6 6 5 6 5 5 5 5 4 5 5 4 4 5 4 3 4 4 5 3 3 3 3 2 3 3 3 4 3 4 4 2 2 3 2 6 3 3 4 3 0 3 1 2 4 4 3 3 3 3 3 4 4 4
9 10 10 9 10 10 10 9 8 9 9 7 7 7 7 7 7 8 8 7 6 7 7 6 6 7 7 7 7 6 7 7 5 6 6 6 7 6 5 5 5 5 5 6 5 4 4 4 5 4 3 3 3 3 3 3 2 2 4 3 3 5 3 3 2 3 4 6 2 2 2 1 2 3 3 2 3 3 4 4 4 4 4 5 5
1 1 6 8 7 6 7 8 9 9 10 9 9 8 7 7 7 8 9 7 8 7 7 8 7 7 7 7 7 6 6 6 6 6 7 7 7 7 6 5 5 5 6 6 6 5 5 4 4 4 3 3 4 4 4 3 3 3 4 4 3 4 4 3 4 4 3 4 4 3 3 3 3 3 3 3 4 5 3 4 3 4 5 5 6
7 7 6 2 4 2 3 5 7 9 10 9 10 8 7 8 7 8 8 8 8 7 6 6 7 8 9 8 8 7 7 7 7 7 7 7 8 8 7 6 6 6 6 6 6 6 6 6 6 4 3 4 4 4 4 4 5 3 4 4 4 4 3 3 4 4 4 5 5 3 2 2 2 3 3 4 5 4 4 4 5 5 4 4 4
6 4 3 6 9 7 7 4 4 6 8 8 9 9 8 7 8 7 7 8 7 7 8 6 7 9 9 8 8 8 8 8 8 9 8 7 7 7 7 7 7 7 6 6 6 5 6 6 5 5 4 5 5 5 4 5 5 5 5 5 4 3 4 4 3 3 3 5 4 5 2 3 3 4 4 3 4 5 6 6 5 3 2 3 4
3 5 4 1 1 1 9 10 5 5 4 4 4 5 6 4 5 7 8 9 8 8 8 8 8 9 9 9 9 9 9 8 8 9 9 8 9 8 8 8 7 7 6 7 6 6 6 6 6 6 6 6 6 6 6 5 5 6 6 6 5 4 4 5 4 4 4 5 4 4 5 4 3 5 5 1 2 4 4 6 6 3 1 3 5
5 4 3 5 4 8 11 9 5 4 4 3 3 3 2 2 3 2 4 6 9 10 10 10 10 9 10 10 10 9 9 9 8 9 9 9 9 8 8 8 8 7 7 7 6 6 7 7 7 7 7 7 7 7 6 7 5 6 7 5 5 5 6 6 5 5 5 4 5 6 4 4 3 4 3 3 4 4 3 4 5 6 7 2 4
4 5 5 6 8 9 8 8 7 5 5 5 4 4 2 2 2 1 1 4 6 7 8 10 10 10 10 10 10 9 9 9 8 8 9 9 9 9 9 8 8 8 7 7 7 7 6 7 7 7 7 10 12 10 9 9 6 7 7 5 5 5 6 6 6 6 6 6 7 5 4 5 6 5 6 5 6 8 3 1 3 5 4 5 5
8 6 5 4 6 8 9 7 4 4 4 4 4 4 4 4 4 3 2 0 1 3 3 4 6 9 10 10 10 9 8 8 10 15 13 9 9 9 8 8 8 8 7 7 7 7 8 7 7 11 13 13 13 14 14 14 13 10 8 6 7 6 6 6 7 7 6 7 7 7 7 7 8 7 6 6 5 3 4 4 4 6 4 4 5
7 6 4 1 1 2 3 2 1 1 1 2 4 6 6 4 3 3 2 2 1 2 4 5 5 6 7 8 8 8 8 8 14 15 16 17 11 9 9 9 8 7 7 7 8 8 7 7 7 9 11 11 11 14 15 15 15 15 16 14 10 8 7 8 8 7 6 7 7 6 7 8 9 7 7 7 4 5 5 4 5 4 4 4 5
7 5 3 3 2 3 2 1 2 2 2 1 0 1 2 3 3 2 2 1 2 1 3 4 5 6 6 7 8 8 8 11 15 15 16 17 15 10 8 8 8 8 8 8 8 8 8 8 7 7 7 9 9 8 10 13 15 15 16 16 16 15 14 10 9 7 6 7 8 8 7 8 9 6 7 4 7 5 5 5 5 5 6 4 3
4 4 5 5 5 3 3 4 3 3 2 0 0 1 0 1 0 1 3 3 3 3 4 3 4 3 5 6 7 8 8 12 13 15 16 17 18 14 9 8 8 8 8 9 9 9 8 8 8 7 8 13 11 9 8 9 11 14 14 15 14 14 14 15 14 11 8 8 8 9 9 7 7 8 6 4 3 4 5 5 4 4 5 5 6
4 5 4 5 5 6 4 4 4 4 3 3 4 2 1 1 0 1 2 3 3 4 4 3 3 3 3 3 3 4 6 10 15 16 16 17 18 15 10 10 9 9 9 9 9 9 9 9 9 9 8 8 7 7 7 7 7 6 6 6 7 10 14 16 17 18 13 10 9 10 10 6 9 9 8 4 4 6 6 7 5 4 5 8 7
4 3 4 4 4 3 4 4 4 4 4 3 3 4 3 3 3 2 2 3 3 4 4 4 3 3 2 3 3 4 5 9 13 15 17 18 18 14 10 10 9 9 9 9 9 10 9 9 9 10 9 8 8 10 9 9 8 8 8 9 9 8 8 8 8 9 9 9 10 11 12 9 10 10 8 5 7 8 7 7 5 5 5 3 3
4 4 4 4 3 3 2 2 2 2 2 3 3 3 3 2 3 3 3 3 3 3 3 3 5 6 4 3 4 5 6 6 6 10 13 14 14 8 8 8 9 9 9 9 9 9 10 9 9 10 10 10 12 16 14 10 8 9 9 9 9 9 9 10 13 12 11 10 10 12 12 12 12 9 8 6 6 6 4 1 1 3 3 5 7
5 4 5 5 5 4 5 3 3 4 3 3 2 2 2 2 2 2 2 3 3 3 3 4 4 5 5 4 5 6 6 7 8 6 7 10 8 7 7 8 9 10 11 9 8 8 8 9 9 10 10 10 14 16 16 14 9 10 10 10 10 9 10 9 11 14 16 16 17 17 17 17 16 13 12 11 9 5 0 2 7 7 6 8 9
4 4 5 5 5 5 4 4 5 5 5 5 4 3 2 1 1 1 2 3 4 4 4 4 4 4 5 5 5 6 7 6 8 6 7 10 10 7 7 8 10 10 11 10 8 8 9 13 13 11 11 12 15 16 17 12 9 10 10 11 11 11 10 9 6 7 13 15 15 16 16 15 15 15 14 15 16 7 5 9 11 5 7 7 9
3 4 4 4 4 4 4 4 4 4 5 5 5 5 5 4 4 3 2 3 4 4 3 4 4 4 4 5 7 8 7 5 6 10 11 11 9 5 5 5 6 7 7 8 8 8 9 11 16 15 13 15 17 16 16 12 10 10 10 9 10 11 10 8 6 7 6 5 6 7 9 12 12 10 12 17 16 9 8 11 8 6 9 9 8
2 2 3 3 3 4 4 5 5 5 5 6 6 6 5 3 3 4 4 3 4 5 4 3 3 3 3 4 5 5 5 5 4 11 10 8 9 5 4 5 7 7 6 6 6 6 8 8 10 14 17 17 17 16 16 15 11 9 7 8 10 12 9 6 7 7 6 7 8 7 9 8 7 7 8 9 10 9 10 10 9 8 9 9 8
6 5 5 4 3 4 4 4 5 6 5 5 5 4 4 4 4 2 3 4 4 4 4 3 3 3 4 5 5 5 4 5 5 7 7 9 12 10 6 7 7 6 6 6 7 8 8 7 7 11 16 17 17 18 17 16 13 10 9 10 11 12 5 4 5 8 7 7 7 7 7 6 7 7 7 7 8 8 8 9 9 9 9 9 9
7 7 7 4 4 4 5 6 4 5 5 6 7 7 6 5 4 2 1 2 3 4 4 5 6 7 7 7 7 6 7 9 6 8 8 6 5 9 6 6 6 5 6 7 7 7 8 7 7 9 12 14 16 16 17 16 15 9 12 16 16 14 9 5 5 6 6 6 6 6 6 7 7 7 7 7 8 8 8 8 9 10 10 10 11
8 8 7 5 5 4 4 5 7 5 6 7 7 8 7 7 7 5 2 3 4 4 5 6 6 6 6 6 6 6 6 6 9 8 11 11 9 6 10 8 8 5 6 8 7 7 6 6 8 9 10 10 11 13 14 16 13 11 17 16 16 13 7 5 5 6 7 7 7 7 7 7 7 8 8 8 8 8 8 8 8 9 9 10 11
7 7 7 7 8 6 4 5 6 6 5 6 6 7 7 7 7 7 5 5 5 6 5 5 5 6 6 7 7 6 6 6 8 11 11 13 14 12 10 11 10 7 5 7 7 7 7 6 4 8 9 9 8 7 7 8 8 13 11 12 11 7 5 6 6 7 7 7 8 8 9 8 8 9 9 8 8 8 8 8 8 9 9 9 10
6 6 7 7 7 7 4 4 5 6 4 4 5 6 5 6 6 7 7 6 6 6 5 5 5 5 6 7 8 8 7 6 6 9 12 12 12 11 11 10 10 7 6 8 8 8 10 12 14 16 14 14 15 13 9 7 9 11 12 10 6 4 5 5 6 6 6 8 9 9 9 9 9 10 9 8 8 6 5 6 7 8 9 10 11
5 6 6 6 6 7 7 4 4 5 4 3 3 3 3 4 6 6 6 6 6 6 6 6 5 5 5 6 6 7 7 6 6 6 6 7 7 9 11 10 9 5 6 7 11 12 13 13 15 15 14 13 10 7 7 8 7 9 9 6 3 5 4 5 5 6 8 8 9 9 10 8 8 9 10 8 7 8 7 8 8 8 8 9 9
4 4 6 7 6 6 7 6 4 3 3 4 3 4 5 5 5 5 6 6 6 6 6 6 6 6 6 6 6 6 7 6 6 6 7 6 6 7 8 9 10 8 4 4 5 5 7 7 6 9 9 13 13 12 10 10 8 7 6 6 6 6 6 6 7 8 9 9 9 9 9 9 8 7 8 8 9 9 8 10 9 10 9 9 10
4 4 5 5 5 5 6 10 8 0 1 1 3 5 5 4 5 6 6 7 6 6 6 6 6 6 6 6 7 7 8 7 5 6 8 8 8 8 9 8 7 7 8 7 7 6 7 7 8 6 5 6 6 5 5 5 7 7 7 7 7 8 9 11 10 9 10 10 9 9 8 7 8 9 8 8 10 10 9 8 9 10 8 7 8
4 5 5 4 6 5 5 5 6 5 2 1 1 0 2 4 5 5 4 3 5 5 6 5 5 5 5 6 7 8 9 9 7 6 9 9 9 8 8 7 7 7 7 9 9 7 6 5 5 6 6 6 7 7 7 6 6 6 7 7 7 7 7 7 9 10 10 8 10 10 10 9 10 9 9 9 10 11 8 8 9 9 8 6 10
4 5 5 5 5 6 6 6 7 5 2 0 1 2 3 3 2 2 5 8 10 3 4 2 4 4 6 6 4 5 8 10 16 18 15 13 13 10 9 9 9 8 10 13 7 5 5 5 5 5 7 7 8 8 8 7 7 7 6 7 7 7 8 8 9 10 9 9 9 9 10 9 9 8 9 10 10 9 9 9 10 8 8 9 11
5 5 5 5 6 5 5 6 7 6 3 1 1 1 3 6 9 9 5 5 5 9 10 9 10 9 4 7 9 10 13 15 16 15 12 11 11 13 13 13 12 10 7 6 4 4 6 6 6 6 6 7 7 8 8 8 8 8 8 7 7 8 8 9 9 9 9 9 9 9 9 8 9 9 9 10 10 10 9 8 8 8 10 11 12
6 6 6 6 7 6 5 5 6 7 6 3 3 4 4 3 6 8 10 8 10 10 10 10 10 11 13 10 6 9 13 14 15 15 14 12 12 12 12 13 13 10 8 1 3 6 7 7 7 6 6 7 8 8 8 8 8 8 8 8 8 8 8 9 10 9 9 9 9 9 9 9 9 9 9 9 9 10 9 8 7 9 11 11 12
7 7 6 6 7 7 6 5 6 6 5 4 4 3 4 3 3 5 7 9 9 8 10 10 10 12 13 14 14 9 10 14 16 14 14 12 10 9 11 13 12 6 4 1 4 7 6 6 7 7 7 7 8 8 8 8 8 8 8 9 9 8 8 9 9 9 9 10 9 9 9 9 9 9 9 9 9 10 9 9 9 10 11 11 11
6 6 6 6 6 6 5 4 4 4 3 1 1 2 3 3 5 3 5 6 6 7 7 7 8 10 13 15 15 15 13 11 12 12 10 9 9 9 7 8 12 6 2 4 6 7 7 7 6 7 7 8 8 8 8 8 8 8 9 9 9 9 9 9 8 9 9 9 9 10 9 9 8 8 9 9 9 9 10 9 9 10 11 10 12
6 9 15 11 6 6 5 4 4 4 5 3 3 4 5 5 4 4 5 5 5 5 6 8 9 8 8 10 11 8 9 11 12 12 11 9 9 10 7 6 7 5 2 3 5 6 7 7 8 8 9 9 9 9 9 9 8 8 8 9 9 9 9 9 9 9 10 9 9 9 8 8 8 8 8 9 9 10 10 10 10 11 11 11 12
7 6 4 7 7 6 6 7 6 5 5 5 5 5 4 5 5 6 5 5 5 5 5 5 4 8 13 11 4 8 12 11 11 10 8 7 6 6 8 8 6 6 6 6 7 9 9 9 9 9 10 10 11 11 11 11 11 11 11 10 10 9 9 9 10 9 9 9 9 8 7 7 7 7 8 10 12 12 11 10 10 11 11 12 12
6 4 4 5 5 6 6 7 6 7 6 5 5 5 5 5 5 5 5 6 6 6 6 5 5 5 5 3 5 8 10 9 8 6 5 5 2 3 4 5 6 7 8 8 8 8 8 8 9 9 10 10 10 11 11 11 10 10 11 11 12 12 10 9 10 9 10 10 9 8 9 8 9 11 11 12 12 11 10 10 10 12 12 15 13
5 6 5 6 5 5 6 6 7 8 7 6 6 6 6 6 6 6 6 6 7 7 7 6 6 6 6 5 5 4 6 6 7 4 3 3 4 5 5 5 5 5 5 5 5 6 6 6 7 8 9 10 11 11 11 11 10 10 10 11 10 10 14 13 12 12 12 11 11 8 5 7 10 10 8 9 11 11 10 10 10 11 12 15 12
5 8 11 12 8 6 6 6 6 5 5 5 6 6 6 6 7 7 6 6 6 6 6 7 7 6 6 6 6 4 5 5 6 5 5 4 2 4 4 4 3 4 3 3 4 4 5 5 6 7 8 8 9 10 10 10 10 10 10 11 11 10 11 10 10 10 10 9 9 6 7 9 10 9 10 11 13 12 10 10 10 11 12 13 12
6 6 7 11 6 6 7 7 7 6 5 5 6 6 6 6 6 6 6 7 7 6 6 7 7 6 7 7 7 5 6 5 3 3 4 3 2 2 3 4 4 4 5 4 3 3 5 5 6 7 8 9 9 9 9 9 10 10 10 9 10 11 11 10 10 10 10 9 10 7 6 10 12 10 10 11 12 11 10 11 11 11 11 12 12
4 5 6 6 7 6 6 7 6 6 5 6 6 6 6 6 6 6 6 7 7 7 7 7 7 7 7 8 9 4 4 5 5 4 3 2 2 2 3 3 3 5 5 4 4 4 5 6 6 7 7 8 8 8 9 9 9 9 9 9 9 9 10 10 10 9 10 10 9 9 9 8 8 9 11 11 12 11 11 9 9 9 10 10 11
4 4 5 5 6 5 5 6 6 7 6 6 6 6 7 7 7 7 7 7 7 8 8 7 7 6 8 12 11 5 4 5 4 5 4 3 2 2 2 2 2 2 3 4 4 6 6 6 6 6 7 7 8 8 9 9 9 9 9 9 9 9 9 9 9 10 10 9 9 9 9 9 10 10 11 11 10 10 10 9 9 9 10 10 10
4 4 4 5 5 6 5 6 6 6 7 6 6 6 7 7 7 7 7 8 8 8 8 8 8 7 8 9 8 6 5 5 4 4 4 4 4 4 3 2 2 2 3 3 4 5 5 6 7 7 7 7 7 8 8 8 8 9 9 9 9 9 9 9 9 10 9 10 10 10 10 10 10 9 9 10 10 10 8 8 8 8 9 10 10
3 4 4 5 7 7 6 6 6 6 6 8 9 7 6 6 6 7 7 7 8 8 8 8 8 8 8 7 6 5 6 6 6 6 4 4 4 4 4 3 2 3 4 4 4 4 5 6 7 7 7 7 7 7 7 7 8 8 8 8 8 9 9 10 10 10 8 7 8 10 10 11 11 11 11 11 10 10 10 10 10 10 9 9 10
4 4 4 4 5 6 6 6 6 5 6 6 5 5 6 6 6 6 7 7 7 7 7 7 8 8 8 7 6 6 6 5 5 5 5 5 4 4 4 3 3 3 4 4 4 5 5 6 7 8 8 7 6 7 7 7 7 8 7 7 8 8 8 8 8 9 8 8 10 11 11 11 11 11 11 11 11 11 11 11 11 11 11 11 11
3 3 4 5 6 7 6 5 6 6 6 6 6 6 6 6 6 7 7 7 8 8 8 8 7 7 7 6 5 5 5 4 5 5 5 5 5 5 5 4 4 4 5 5 5 6 6 7 7 7 8 7 7 7 7 7 7 7 6 6 7 8 8 7 7 8 8 8 9 9 9 10 11 11 13 11 11 10 12 13 12 12 11 12 12
4 4 4 5 6 6 6 6 5 6 5 6 6 7 7 7 7 7 8 10 10 8 7 6 6 6 6 6 6 6 5 5 5 5 5 5 5 4 4 5 5 5 6 5 6 6 7 7 7 7 7 7 7 7 6 6 6 7 7 7 7 8 8 7 7 7 7 9 9 9 10 10 11 10 12 11 10 11 11 12 12 13 13 12 12
4 4 5 5 5 5 5 5 6 9 7 7 6 6 7 7 7 8 7 7 8 7 7 7 7 6 6 6 6 6 5 5 5 5 5 5 5 4 5 5 6 6 6 6 6 6 6 6 6 5 5 6 7 7 7 7 7 8 8 7 7 7 9 9 8 9 8 9 9 10 10 10 10 11 11 11 11 10 11 11 10 10 11 11 11
3 3 3 4 4 5 5 5 5 5 6 6 7 7 7 7 8 7 7 7 7 7 7 7 7 6 6 6 6 5 5 5 5 5 5 5 5 5 5 5 6 6 6 6 6 6 6 4 3 4 5 6 6 7 7 8 8 8 8 8 8 12 15 16 11 9 12 10 9 10 10 11 12 12 12 12 12 11 11 12 12 11 10 11 11
3 4 4 4 5 5 5 5 5 5 6 6 7 7 8 8 8 8 8 8 7 7 7 7 7 6 6 6 6 6 6 6 5 5 5 5 5 5 5 5 6 6 6 6 6 6 5 4 4 4 5 6 6 6 7 7 7 8 8 8 13 18 19 19 18 18 12 7 8 9 9 10 11 11 11 12 12 13 13 13 12 11 12 12 12
4 5 4 5 5 5 6 6 6 6 7 7 6 7 8 8 7 7 8 7 7 7 7 7 7 7 6 6 5 5 5 5 5 5 5 5 5 5 6 6 6 6 6 6 6 6 5 4 4 4 5 6 6 7 7 7 7 8 10 15 17 17 18 17 12 15 18 11 8 9 9 10 11 11 11 10 11 12 13 13 12 11 11 10 10
Wind_Direction
182 188 184 190 187 190 192 189 193 192 193 193 187 191 196 197 196 199 190 201 201 193 184 184 183 184 187 189 189 191 196 200 204 199 198 211 217 210 222 220 222 232 229 251 254 258 265 272 282 274 256 253 274 299 332 327 335 325 313 272 199 175 145 152 231 285 295 262 256 273 311 334 324 15 351 328 324 333 305 282 272 223 217 215 216
185 193 192 191 193 194 195 191 187 185 193 199 203 197 199 199 197 191 192 201 195 200 196 189 186 184 187 191 194 194 195 199 203 199 205 215 221 210 212 219 226 236 229 240 252 254 251 261 279 282 266 244 262 292 270 313 327 321 303 286 294 265 202 159 213 214 280 315 317 312 296 304 309 278 348 330 324 329 310 263 253 245 240 230 221
190 179 180 188 196 195 193 193 186 187 192 196 206 208 205 203 197 194 197 199 200 197 200 197 191 189 188 187 189 193 196 199 200 198 208 212 218 221 215 209 215 226 229 233 237 244 257 256 263 271 279 274 275 265 279 272 254 253 277 269 266 278 261 211 171 236 264 280 237 287 263 294 242 276 296 280 281 276 290 290 257 241 236 221 220
47 179 182 186 182 172 187 191 192 192 195 197 203 211 210 207 202 201 201 197 197 204 198 197 193 195 195 196 194 190 192 202 203 202 204 207 216 222 223 217 216 219 221 226 229 231 237 250 256 256 269 266 266 272 273 267 260 242 255 272 267 273 273 215 212 217 233 271 303 283 270 301 296 280 278 297 299 308 279 278 268 240 232 220 219
30 7 337 233 184 156 151 157 189 200 201 197 201 202 210 209 205 208 203 204 202 195 201 196 193 196 201 202 203 203 199 198 204 210 211 208 212 217 219 220 221 221 224 226 226 222 229 228 243 247 250 255 266 269 268 273 267 248 233 250 254 258 274 235 234 219 227 244 267 272 270 278 257 278 274 286 309 309 308 296 289 287 261 230 220
120 118 257 315 350 10 330 287 203 195 198 205 205 204 200 205 205 210 207 206 204 201 192 194 194 199 204 205 205 206 204 200 202 207 209 210 213 216 217 218 222 221 222 225 227 224 225 230 232 229 231 230 246 250 254 258 264 264 268 259 237 242 257 273 252 231 224 245 243 290 313 260 292 274 263 245 284 302 309 304 306 292 258 290 251
108 183 172 95 122 273 244 240 217 197 194 183 186 194 191 184 198 210 208 205 201 202 201 197 200 198 205 205 206 207 205 204 204 205 207 207 209 213 218 219 223 224 226 226 225 224 228 232 232 227 228 228 234 237 240 246 242 248 244 250 260 239 242 246 244 239 236 250 267 242 265 274 235 279 290 301 247 225 258 304 310 293 253 223 265
139 165 141 145 159 223 240 250 227 189 162 164 179 179 154 125 122 170 186 220 211 202 202 202 204 203 205 204 209 205 204 206 208 207 206 205 205 212 213 216 222 225 229 229 228 225 225 227 229 226 224 226 223 231 221 234 230 241 242 238 246 252 261 260 261 253 255 257 249 269 241 258 290 257 290 334 312 303 217 210 258 289 300 281 223
115 167 179 169 196 227 246 234 204 193 184 183 185 177 179 162 158 126 150 186 213 232 214 203 201 209 212 211 212 208 205 209 207 206 208 212 210 214 213 214 216 223 228 232 229 228 228 227 229 230 225 226 223 224 224 220 218 231 246 228 240 242 253 258 252 254 256 253 272 262 271 280 267 275 287 276 255 251 241 158 257 265 268 297 286
104 111 126 161 188 210 211 222 205 188 178 182 170 157 184 179 174 167 141 2 238 189 211 213 214 212 212 215 215 211 212 212 213 209 205 205 211 217 218 217 217 219 223 231 237 232 231 228 232 228 230 234 235 236 238 239 234 226 233 222 225 225 232 242 247 242 242 252 251 254 262 259 259 248 246 246 239 261 293 280 275 285 316 290 285
62 75 70 93 157 202 212 235 257 236 214 166 167 171 188 183 195 176 179 194 237 296 201 186 189 196 211 220 220 222 222 220 216 210 211 210 207 212 215 220 217 217 220 223 233 238 241 238 239 245 246 245 244 241 241 243 246 244 242 238 222 210 224 228 236 233 233 237 245 245 241 253 257 247 241 253 248 238 245 252 261 282 279 279 287
46 44 17 1 30 33 32 59 79 60 78 77 214 255 168 166 185 200 202 212 236 218 276 230 197 190 192 200 212 220 227 231 223 216 214 216 214 213 216 220 219 215 218 222 227 232 238 240 239 238 238 237 239 245 244 244 244 246 248 248 247 237 228 219 228 237 226 234 242 238 235 240 253 251 256 248 256 259 248 243 246 252 260 244 231
37 34 38 24 357 10 19 31 41 48 43 40 230 181 83 96 214 253 241 244 233 234 232 246 261 234 191 187 203 211 221 229 229 226 223 220 219 219 222 221 227 229 225 226 228 228 229 233 240 236 240 236 236 237 239 247 245 242 245 251 254 250 248 247 242 237 228 225 234 244 230 237 246 250 228 226 203 243 266 258 245 229 227 241 241
31 28 27 32 357 351 7 27 22 12 16 9 14 39 29 3 266 210 261 288 279 273 271 260 255 258 262 247 225 221 220 225 220 223 226 226 224 218 229 227 226 232 234 233 233 233 232 232 235 242 238 238 235 231 229 231 239 248 250 244 243 251 247 239 238 240 238 234 231 239 244 209 236 243 242 210 216 244 247 255 245 246 239 235 235
49 45 39 27 27 5 347 0 36 20 12 14 21 26 28 17 356 319 261 239 244 260 279 293 288 273 243 220 235 248 241 233 226 222 222 224 227 220 230 234 236 235 236 236 236 236 235 233 235 241 245 238 235 233 236 240 241 246 253 256 252 250 247 245 239 235 235 231 234 238 248 238 236 246 250 213 216 232 234 248 246 241 251 277 306
38 29 26 15 28 7 335 326 359 28 34 25 29 25 22 28 5 340 306 265 255 247 269 273 281 286 275 250 242 244 250 244 220 219 225 230 229 228 235 239 240 242 241 238 236 236 235 233 232 238 242 243 242 238 236 238 241 246 250 254 259 256 251 242 239 236 231 230 232 238 242 246 241 240 242 230 227 240 256 328 307 254 279 291 270
32 23 19 10 7 8 10 349 346 353 354 21 36 30 22 4 345 336 320 300 272 252 241 242 244 254 269 272 257 257 258 231 218 191 190 210 204 218 222 229 237 240 243 241 241 242 244 241 239 241 243 243 244 238 238 235 241 243 246 250 253 256 257 255 241 239 243 243 242 243 247 254 259 257 258 256 246 248 313 307 265 253 262 272 270
26 23 13 5 2 359 1 5 4 2 354 346 346 344 329 292 295 324 325 322 311 291 265 256 249 245 254 263 261 271 269 240 202 209 196 171 181 199 212 220 232 236 242 244 241 240 236 234 233 236 241 247 245 240 239 231 234 238 241 246 252 254 258 256 256 245 235 240 248 253 257 262 262 261 257 254 252 228 195 236 248 236 240 232 255
28 20 2 353 356 1 359 357 357 355 355 347 330 324 320 312 311 319 321 313 298 291 279 268 268 265 263 264 268 264 268 277 178 199 207 204 197 209 204 210 232 237 238 245 241 240 245 244 242 238 236 240 242 242 240 228 232 233 235 240 249 254 254 257 251 256 259 254 253 245 255 250 250 246 248 247 248 232 209 229 243 221 237 239 241
327 355 341 353 346 360 359 357 350 352 347 336 335 324 309 301 294 302 309 305 305 303 294 273 269 270 271 273 283 282 290 284 216 199 202 214 210 214 221 210 236 242 243 252 258 253 249 254 254 251 248 247 244 240 239 229 229 238 232 237 246 253 248 241 242 243 251 243 247 241 245 247 246 240 241 247 245 226 219 220 224 218 225 238 237
353 351 348 338 350 352 354 358 345 344 345 334 323 325 329 315 295 280 299 315 315 326 339 339 325 320 320 316 307 313 337 326 305 281 245 214 216 210 214 223 237 245 245 245 245 252 253 245 246 244 241 243 245 247 247 242 232 239 235 240 241 249 261 237 251 248 249 249 249 247 246 245 247 244 241 240 241 236 222 217 219 213 213 225 233
350 351 345 328 342 351 350 345 353 348 341 346 347 337 334 331 319 278 260 309 342 352 358 7 7 7 4 352 343 338 339 338 327 326 323 299 260 230 258 259 248 260 260 258 263 265 264 261 256 253 250 247 247 248 251 252 243 235 245 242 253 263 265 264 271 268 263 262 262 261 256 249 246 243 241 239 237 236 228 219 215 215 213 216 219
354 352 348 346 337 343 348 348 341 348 346 349 349 340 337 344 344 354 11 5 16 9 11 10 11 8 1 343 335 340 343 334 326 320 318 314 299 245 229 244 266 262 261 270 271 279 283 285 278 296 311 300 284 273 266 262 259 245 247 254 257 270 294 285 276 278 275 271 264 259 255 251 253 250 242 242 238 231 232 225 220 216 220 225 227
352 350 346 341 332 329 345 344 338 336 350 348 350 354 358 352 355 9 10 19 19 13 2 2 4 2 349 329 330 334 343 342 335 333 325 317 316 307 280 259 257 252 260 264 268 269 278 286 320 337 320 332 338 339 305 276 251 274 288 276 277 283 262 266 258 252 257 262 263 263 260 254 250 252 247 241 243 233 233 235 233 224 222 226 228
346 344 338 334 334 324 321 338 334 324 343 358 359 355 6 4 9 3 3 8 10 3 348 354 358 347 340 330 324 328 335 340 333 331 329 330 334 339 340 331 306 295 283 271 267 265 276 293 301 301 299 293 290 291 294 279 256 247 253 261 263 238 233 230 244 240 239 239 244 249 251 247 244 250 253 248 244 240 239 246 241 237 230 231 232
337 332 329 330 326 330 320 317 324 320 343 350 359 1 15 7 4 356 1 356 354 348 340 338 342 339 330 322 316 312 317 321 321 315 313 319 325 354 358 351 338 306 234 258 276 292 293 290 290 293 295 291 286 279 275 269 244 224 225 212 206 212 210 223 235 238 243 245 243 246 250 251 247 244 245 246 243 236 229 239 240 243 232 234 241
324 325 326 325 324 330 326 297 283 331 359 345 351 4 4 8 3 360 356 349 344 338 336 333 330 329 320 319 313 313 312 317 322 317 319 329 339 344 346 339 335 337 326 302 290 292 300 301 297 284 274 277 277 273 273 274 264 239 223 209 211 208 210 210 220 228 240 243 247 247 250 250 254 254 248 243 244 244 228 237 239 245 236 237 239
314 313 313 319 320 321 322 320 316 16 316 351 12 359 2 12 9 353 343 334 330 329 333 331 326 320 321 321 323 320 317 320 329 329 327 329 332 333 332 329 328 333 318 319 327 314 306 303 299 296 289 289 285 285 268 256 249 249 242 231 228 224 226 227 230 235 242 241 245 247 251 247 248 246 248 243 245 248 239 235 240 250 250 255 259
305 309 309 317 318 319 317 313 302 278 255 330 20 137 29 348 341 324 309 294 312 338 327 316 321 325 324 322 325 321 319 318 321 333 316 315 315 317 321 318 323 314 310 339 319 296 295 292 300 299 294 294 295 293 289 277 264 245 239 232 228 230 230 222 229 235 238 239 244 245 251 250 251 247 242 244 244 246 245 248 245 246 255 243 251
298 302 306 310 308 314 318 319 314 285 238 219 6 329 323 333 279 281 299 319 335 32 157 309 302 317 322 302 284 293 303 300 305 312 312 315 311 299 284 291 290 291 307 314 287 285 288 291 289 287 288 288 288 286 284 279 276 268 256 248 242 239 237 236 236 241 237 234 240 243 246 249 253 250 243 244 252 247 238 227 244 233 241 244 251
310 304 308 305 304 304 312 313 313 293 279 282 272 277 303 318 323 324 310 305 314 335 347 341 339 334 330 311 308 292 282 287 293 300 316 318 307 304 314 315 315 322 330 337 296 273 296 287 281 278 270 269 267 272 269 266 261 261 261 255 245 244 243 245 246 243 240 238 240 242 244 242 245 245 244 245 247 249 249 237 238 241 241 243 245
337 317 307 299 299 303 298 300 306 300 301 312 314 308 314 319 320 318 322 331 336 337 331 327 323 321 317 310 300 312 310 305 309 316 318 313 311 323 321 316 314 329 330 252 286 292 300 294 291 284 281 275 269 266 263 260 259 256 256 252 250 241 242 246 245 243 242 239 237 238 241 241 242 244 243 246 245 251 252 256 242 242 244 245 246
343 331 320 307 299 299 302 306 303 300 307 324 329 333 330 333 328 318 320 324 324 317 312 308 310 312 315 314 310 291 289 300 305 311 317 321 338 336 319 308 312 337 69 12 268 297 297 296 295 291 287 282 281 278 271 263 258 256 251 252 253 247 242 245 241 240 240 240 237 237 236 239 240 244 242 241 240 246 246 246 245 245 249 252 255
333 323 320 320 314 295 303 318 337 336 313 301 300 342 330 321 309 304 310 315 326 321 313 299 299 314 316 319 320 342 346 338 331 334 337 337 335 330 329 308 301 301 203 305 312 300 297 298 295 296 296 291 289 285 282 276 268 262 261 255 253 254 250 245 242 240 240 239 236 239 236 238 236 237 242 243 241 245 249 248 247 251 252 248 253
330 329 339 347 344 340 336 340 339 335 325 323 323 323 316 311 304 305 305 308 306 304 303 316 321 322 315 313 337 350 357 356 360 350 348 346 343 330 318 335 348 12 359 265 271 297 323 332 332 333 333 330 327 319 309 301 287 276 265 263 258 255 253 249 246 246 243 244 241 238 232 234 234 231 239 244 244 242 242 245 248 246 250 252 249
324 319 329 353 352 342 332 327 320 319 314 304 298 297 301 301 305 302 300 296 298 299 300 291 289 309 311 311 357 9 2 1 3 2 5 354 356 0 3 346 345 352 348 352 6 3 356 350 351 344 344 340 337 335 334 332 328 322 313 296 278 258 254 254 251 245 242 242 244 244 239 233 232 237 241 244 246 246 245 240 242 247 248 251 251
318 327 360 353 348 345 347 340 332 322 312 311 311 310 306 302 298 296 300 304 303 302 298 301 308 310 312 315 356 349 347 350 352 0 8 352 329 18 354 355 358 359 6 1 356 354 353 350 345 341 338 335 329 326 324 321 321 321 322 323 320 308 285 267 256 249 248 248 246 241 233 237 238 236 235 244 247 243 240 238 239 244 248 251 251
329 344 346 346 347 346 344 336 333 335 336 328 322 317 314 313 312 316 316 312 311 313 314 311 312 312 318 306 341 343 324 325 337 359 0 12 19 26 37 30 22 7 355 357 354 348 343 339 341 335 330 325 322 320 317 317 319 319 319 318 313 309 316 310 283 265 254 249 248 236 211 234 240 243 241 243 251 250 240 234 235 243 248 254 251
332 339 341 346 348 343 336 328 326 333 335 343 344 345 340 336 331 326 320 315 313 310 306 307 308 311 311 316 318 319 332 350 353 337 342 346 3 46 35 20 4 350 337 338 341 335 328 324 327 323 316 316 314 314 313 314 316 316 318 315 312 314 316 315 317 315 307 285 263 223 193 232 250 243 243 245 248 246 241 236 233 235 243 251 250
345 338 331 339 338 338 334 326 323 325 327 335 334 333 330 325 320 315 315 316 316 315 312 312 310 310 310 313 314 333 331 317 308 304 309 322 355 27 30 357 343 330 329 321 325 317 313 313 318 318 318 314 309 305 306 310 313 312 313 312 315 314 311 312 315 315 311 319 322 311 251 233 249 251 245 240 245 246 240 234 233 234 238 246 253
331 332 329 325 322 331 325 319 309 310 328 330 329 328 323 321 318 320 319 315 311 308 305 303 301 302 303 296 297 295 286 297 301 296 288 300 329 342 333 328 324 330 331 327 314 308 308 308 314 313 309 308 304 305 309 309 307 309 310 309 308 304 306 309 309 312 316 317 316 312 309 302 292 280 262 253 248 251 248 243 241 241 243 246 250
343 324 325 328 329 321 317 316 321 322 320 318 324 322 320 317 316 314 311 310 307 305 302 299 299 299 298 295 300 280 252 293 294 295 298 304 300 297 316 323 329 315 312 313 313 314 316 314 308 310 307 305 307 304 307 306 305 304 308 308 306 307 308 309 311 311 312 307 306 306 306 302 300 300 299 304 292 273 257 249 244 248 249 250 248
352 340 327 324 324 317 319 317 315 312 309 309 301 301 300 303 303 307 306 304 304 304 304 303 303 303 300 295 295 295 288 293 295 299 297 301 313 314 320 313 303 295 290 292 303 306 305 309 306 299 299 296 294 295 296 296 298 298 299 300 301 304 305 307 306 305 303 302 304 306 305 300 298 297 296 296 294 292 279 266 255 246 246 245 251
342 334 327 322 317 314 310 306 304 303 302 302 302 302 300 296 296 296 295 296 299 299 298 297 300 301 299 298 298 303 298 297 295 292 298 305 306 311 317 316 310 307 305 304 302 300 295 295 297 294 285 284 285 284 285 286 289 290 292 296 299 297 295 296 297 300 308 312 309 303 300 301 298 298 295 291 291 290 287 280 271 258 251 251 250
342 338 330 317 297 287 285 281 280 286 303 311 310 304 301 300 298 294 294 292 291 293 293 296 298 297 298 299 300 297 297 299 304 310 308 309 316 319 315 312 309 302 299 299 295 294 292 291 289 291 290 285 285 285 285 284 282 280 277 281 285 288 287 289 292 296 298 292 293 291 288 288 289 289 286 287 288 290 287 281 275 274 270 262 256
310 311 302 293 289 287 291 293 303 309 308 304 305 304 307 309 304 302 299 299 299 296 295 295 296 296 297 297 300 299 299 299 298 300 307 312 311 307 307 307 304 300 295 296 298 294 292 289 289 287 288 288 287 286 283 285 287 284 279 275 277 279 280 281 285 289 289 289 288 286 284 282 278 275 273 277 280 277 277 278 279 276 271 267 261
315 299 296 288 291 299 302 307 311 303 308 317 319 319 314 307 302 299 298 297 296 293 296 296 300 298 301 298 301 298 298 298 298 302 300 302 304 310 309 308 302 298 298 297 296 294 291 289 286 284 286 289 288 288 294 296 294 286 278 275 272 276 277 278 281 276 281 279 274 274 276 277 274 275 275 273 270 269 269 268 269 269 271 271 275
290 289 293 304 312 312 320 328 328 329 332 323 315 315 313 311 308 305 305 305 304 305 302 300 297 297 296 293 289 291 294 292 291 292 293 300 307 305 298 297 298 299 300 300 297 294 292 291 293 299 298 296 294 294 291 290 287 287 283 279 277 272 284 295 294 284 273 270 266 264 262 263 265 266 266 265 264 267 266 267 268 265 263 264 262
323 322 329 327 328 337 339 343 338 333 327 328 325 319 311 309 310 312 310 307 306 303 302 299 297 297 295 294 292 285 279 284 291 301 306 304 300 295 296 295 301 303 304 302 304 304 305 305 303 297 289 289 289 290 290 292 293 294 293 290 293 302 306 298 288 277 277 274 266 261 257 257 261 261 262 264 264 263 263 266 265 266 267 264 265
331 343 340 337 338 340 343 337 326 323 326 323 318 313 314 314 316 312 308 305 303 303 303 304 303 303 301 302 302 304 307 308 306 302 299 297 297 300 302 304 302 299 299 299 300 301 294 290 292 292 294 290 289 289 291 293 294 295 293 296 301 301 297 295 291 285 279 260 258 251 249 251 254 255 259 259 260 261 261 261 262 263 263 263 262
357 344 337 339 349 352 347 337 331 332 331 320 312 314 313 311 307 306 304 303 302 304 305 303 299 298 296 295 298 304 304 303 301 301 300 303 306 306 304 302 300 300 295 295 296 295 293 290 296 301 299 299 299 296 294 292 291 289 294 297 299 298 297 295 292 291 289 279 262 259 253 250 247 251 254 253 254 256 256 259 261 262 262 263 265